TimeEST,TemperatureF,Dew PointF,Humidity,Sea Level PressureIn,VisibilityMPH,Wind Direction,Wind SpeedMPH,Gust SpeedMPH,PrecipitationIn,Events,Conditions,WindDirDegrees,DateUTC
12:15 AM,55.4,53.6,94,30.02,1.5,Calm,Calm,-,0.00,,Overcast,0,2012-12-08 05:15:00
12:35 AM,55.4,53.6,94,30.02,2.5,Calm,Calm,-,0.00,,Overcast,0,2012-12-08 05:35:00
12:55 AM,55.4,53.6,94,30.02,2.0,WNW,4.6,-,0.00,,Overcast,300,2012-12-08 05:55:00
1:15 AM,55.4,53.6,94,30.02,0.5,WNW,3.5,-,0.00,Fog,Fog,290,2012-12-08 06:15:00
1:35 AM,53.6,53.6,100,30.02,0.2,WNW,4.6,-,0.00,Fog,Fog,300,2012-12-08 06:35:00
1:55 AM,53.6,51.8,94,30.02,2.5,Calm,Calm,-,0.00,,Mostly Cloudy,0,2012-12-08 06:55:00
2:15 AM,53.6,51.8,94,30.02,4.0,Calm,Calm,-,0.00,,Partly Cloudy,0,2012-12-08 07:15:00
2:35 AM,51.8,50.0,94,30.03,4.0,WNW,4.6,-,0.00,,Clear,300,2012-12-08 07:35:00
2:55 AM,51.8,50.0,94,30.03,4.0,NW,3.5,-,0.00,,Scattered Clouds,310,2012-12-08 07:55:00
3:15 AM,51.8,51.8,100,30.02,2.0,NW,5.8,-,0.00,,Overcast,320,2012-12-08 08:15:00
3:35 AM,51.8,51.8,100,30.02,1.5,NNW,4.6,-,0.00,,Overcast,340,2012-12-08 08:35:00
3:55 AM,51.8,51.8,100,30.03,1.5,NNW,3.5,-,0.00,,Overcast,330,2012-12-08 08:55:00
4:15 AM,51.8,51.8,100,30.03,0.5,NW,5.8,-,0.00,Fog,Fog,320,2012-12-08 09:15:00
4:35 AM,51.8,51.8,100,30.03,0.2,NW,4.6,-,0.00,Fog,Fog,310,2012-12-08 09:35:00
4:55 AM,53.6,51.8,94,30.04,0.5,Calm,Calm,-,0.00,Fog,Fog,0,2012-12-08 09:55:00
5:15 AM,53.6,51.8,94,30.03,1.8,NNW,5.8,-,0.00,,Overcast,340,2012-12-08 10:15:00
5:35 AM,53.6,51.8,94,30.04,1.8,NNW,5.8,-,0.00,,Overcast,340,2012-12-08 10:35:00
5:55 AM,51.8,51.8,100,30.04,2.5,NNW,5.8,-,0.00,,Mostly Cloudy,330,2012-12-08 10:55:00
6:15 AM,51.8,51.8,100,30.04,3.0,Calm,Calm,-,0.00,,Partly Cloudy,0,2012-12-08 11:15:00
6:55 AM,51.8,50.0,94,30.06,1.2,Calm,Calm,-,0.00,,Clear,0,2012-12-08 11:55:00
7:15 AM,50.0,48.2,94,30.06,3.0,Calm,Calm,-,0.00,,Clear,0,2012-12-08 12:15:00
7:35 AM,50.0,48.2,94,30.07,2.0,Calm,Calm,-,0.00,,Clear,0,2012-12-08 12:35:00
7:55 AM,51.8,50.0,94,30.07,2.5,Calm,Calm,-,0.00,,Clear,0,2012-12-08 12:55:00
8:15 AM,51.8,51.8,100,30.08,2.0,Calm,Calm,-,0.00,,Clear,0,2012-12-08 13:15:00
8:35 AM,53.6,51.8,94,30.09,2.5,Calm,Calm,-,0.00,,Clear,0,2012-12-08 13:35:00
8:55 AM,55.4,51.8,88,30.09,3.0,Calm,Calm,-,0.00,,Clear,0,2012-12-08 13:55:00
9:15 AM,57.2,51.8,82,30.10,3.0,Calm,Calm,-,0.00,,Haze,0,2012-12-08 14:15:00
9:35 AM,57.2,53.6,88,30.10,5.0,Calm,Calm,-,0.00,,Clear,0,2012-12-08 14:35:00
9:55 AM,60.8,53.6,77,30.11,5.0,Calm,Calm,-,0.00,,Haze,0,2012-12-08 14:55:00
10:15 AM,62.6,53.6,72,30.11,9.0,Calm,Calm,-,0.00,,Clear,0,2012-12-08 15:15:00
10:35 AM,62.6,53.6,72,30.11,10.0,WNW,4.6,-,0.00,,Clear,300,2012-12-08 15:35:00
10:55 AM,64.4,53.6,68,30.10,10.0,WNW,4.6,-,0.00,,Clear,300,2012-12-08 15:55:00
11:15 AM,66.2,53.6,64,30.09,10.0,Calm,Calm,-,0.00,,Clear,0,2012-12-08 16:15:00
11:55 AM,69.8,53.6,56,30.08,10.0,Calm,Calm,-,0.00,,Clear,0,2012-12-08 16:55:00
12:15 PM,69.8,55.4,60,30.07,10.0,Calm,Calm,-,0.00,,Clear,0,2012-12-08 17:15:00
12:35 PM,71.6,53.6,53,30.06,10.0,Calm,Calm,-,0.00,,Clear,0,2012-12-08 17:35:00
12:55 PM,71.6,55.4,57,30.05,10.0,Calm,Calm,-,0.00,,Partly Cloudy,0,2012-12-08 17:55:00
1:15 PM,69.8,55.4,60,30.05,10.0,Calm,Calm,-,0.00,,Clear,0,2012-12-08 18:15:00
1:35 PM,69.8,55.4,60,30.04,10.0,Calm,Calm,-,0.00,,Partly Cloudy,0,2012-12-08 18:35:00
1:55 PM,69.8,55.4,60,30.04,10.0,Calm,Calm,-,0.00,,Partly Cloudy,0,2012-12-08 18:55:00
2:15 PM,69.8,55.4,60,30.03,10.0,Calm,Calm,-,0.00,,Partly Cloudy,0,2012-12-08 19:15:00
2:55 PM,66.2,57.2,73,30.03,9.0,SSE,4.6,-,0.00,,Partly Cloudy,160,2012-12-08 19:55:00
3:15 PM,64.4,57.2,77,30.03,9.0,Calm,Calm,-,0.00,,Partly Cloudy,0,2012-12-08 20:15:00
3:35 PM,64.4,57.2,77,30.03,9.0,SSE,3.5,-,0.00,,Clear,160,2012-12-08 20:35:00
3:55 PM,64.4,57.2,77,30.04,9.0,SSE,3.5,-,0.00,,Clear,160,2012-12-08 20:55:00
4:15 PM,64.4,57.2,77,30.05,9.0,SE,4.6,-,0.00,,Clear,140,2012-12-08 21:15:00
4:35 PM,62.6,55.4,77,30.05,9.0,Calm,Calm,-,0.00,,Partly Cloudy,0,2012-12-08 21:35:00
4:55 PM,62.6,55.4,77,30.06,8.0,Calm,Calm,-,0.00,,Partly Cloudy,0,2012-12-08 21:55:00
5:15 PM,60.8,55.4,82,30.06,7.0,Calm,Calm,-,0.00,,Clear,0,2012-12-08 22:15:00
5:35 PM,60.8,55.4,82,30.06,7.0,Calm,Calm,-,0.00,,Clear,0,2012-12-08 22:35:00
5:55 PM,59.0,55.4,88,30.07,8.0,Calm,Calm,-,0.00,,Clear,0,2012-12-08 22:55:00
6:15 PM,57.2,55.4,94,30.08,7.0,Calm,Calm,-,0.00,,Clear,0,2012-12-08 23:15:00
6:35 PM,57.2,55.4,94,30.08,9.0,Calm,Calm,-,0.00,,Clear,0,2012-12-08 23:35:00
6:55 PM,57.2,55.4,94,30.08,7.0,Calm,Calm,-,0.00,,Clear,0,2012-12-08 23:55:00
7:15 PM,55.4,53.6,94,30.08,3.0,Calm,Calm,-,0.00,,Mostly Cloudy,0,2012-12-09 00:15:00
7:55 PM,57.2,55.4,94,30.09,7.0,Calm,Calm,-,0.00,,Scattered Clouds,0,2012-12-09 00:55:00
8:15 PM,57.2,55.4,94,30.09,5.0,Calm,Calm,-,0.00,,Partly Cloudy,0,2012-12-09 01:15:00
8:35 PM,57.2,55.4,94,30.09,6.0,Calm,Calm,-,0.00,,Clear,0,2012-12-09 01:35:00
8:55 PM,55.4,53.6,94,30.10,5.0,Calm,Calm,-,0.00,,Clear,0,2012-12-09 01:55:00
9:15 PM,55.4,53.6,94,30.10,7.0,Calm,Calm,-,0.00,,Clear,0,2012-12-09 02:15:00
9:35 PM,55.4,53.6,94,30.10,7.0,Calm,Calm,-,0.00,,Clear,0,2012-12-09 02:35:00
9:55 PM,55.4,51.8,88,30.11,7.0,Calm,Calm,-,0.00,,Clear,0,2012-12-09 02:55:00
10:15 PM,53.6,51.8,94,30.11,8.0,Calm,Calm,-,0.00,,Clear,0,2012-12-09 03:15:00
10:35 PM,55.4,53.6,94,30.10,7.0,Calm,Calm,-,0.00,,Clear,0,2012-12-09 03:35:00
10:55 PM,53.6,51.8,94,30.10,5.0,Calm,Calm,-,0.00,,Clear,0,2012-12-09 03:55:00
11:15 PM,53.6,51.8,94,30.10,6.0,Calm,Calm,-,0.00,,Clear,0,2012-12-09 04:15:00
11:35 PM,55.4,51.8,88,30.09,7.0,Calm,Calm,-,0.00,,Clear,0,2012-12-09 04:35:00